Granbury, TX

3:10 PM CDT on April 27, 2017 (GMT -0500)
Granbury

Weather History for KGDJ - March, 2013

Change the Weather History Date:

Sunday, March 17, 2013

  Actual Average (KSEP) Record (KSEP)
Temperature  
Mean Temperature 62 °F -  
Max Temperature 73 °F 65 °F 90 °F (1925)
Min Temperature 53 °F 44 °F 26 °F (1923)
Degree Days  
Heating Degree Days 2    
Growing Degree Days 12 (Base 50)    
Moisture  
Dew Point 49 °F    
Average Humidity 60    
Maximum Humidity 79    
Minimum Humidity 41    
Precipitation  
Precipitation 0.00 in - - ()
Sea Level Pressure  
Sea Level Pressure 29.76 in    
Wind  
Wind Speed 8 mph (SW)    
Max Wind Speed 13 mph    
Max Gust Speed 21 mph    
Visibility 10 miles    
Events      
Averages and records for this station are not official NWS values.
T = Trace of Precipitation, MM = Missing Value Source: NWS Daily Summary

Daily Weather History Graph

Daily Weather History Graph

Search for Another Location

Airport or City:

Trip Planner

Search our weather history database for the weather conditions in past years. The results will help you decide how hot, cold, wet, or windy it might be!

Date:

Astronomy

Mar. 17, 2013 Rise Set
Actual Time 7:38 AM CDT 7:40 PM CDT
Civil Twilight 7:14 AM CDT 8:05 PM CDT
Nautical Twilight 6:45 AM CDT 8:33 PM CDT
Astronomical Twilight 6:16 AM CDT 9:02 PM CDT
Moon 11:10 AM CDT (3/17) 12:32 AM CDT (3/17)
Length of Visible Light 12h 51m
Length of Day
12h 02m
Waxing Crescent, 31% of the Moon is Illuminated
Mar 17
Waxing Crescent
Mar 19
First Quarter
Mar 27
Full
Apr 2
Last Quarter
Apr 10
New

Hourly Weather History & Observations

Time (CDT) Temp. Dew Point Humidity Pressure Visibility Wind Dir Wind Speed Gust Speed Precip Events Conditions
12:35 AM 70.3 °F 57.6 °F 64% 29.73 in 10.0 mi SSE 11.5 mph 20.7 mph N/A   Clear
12:55 AM 69.8 °F 58.1 °F 66% 29.74 in 10.0 mi SSE 10.4 mph - N/A   Clear
1:15 AM 69.3 °F 58.5 °F 68% 29.74 in 10.0 mi SSE 8.1 mph - N/A   Clear
1:35 AM 68.7 °F 59.0 °F 71% 29.74 in 10.0 mi SSE 11.5 mph - N/A   Clear
1:55 AM 68.2 °F 59.2 °F 73% 29.74 in 10.0 mi SSE 12.7 mph - N/A   Clear
2:15 AM 68.0 °F 59.4 °F 74% 29.74 in 10.0 mi SSE 10.4 mph - N/A   Clear
2:35 AM 67.6 °F 59.5 °F 75% 29.74 in 10.0 mi SSE 9.2 mph - N/A   Clear
2:55 AM 67.3 °F 59.4 °F 76% 29.74 in 10.0 mi South 12.7 mph - N/A   Clear
3:15 AM 67.1 °F 59.4 °F 76% 29.74 in 10.0 mi South 11.5 mph - N/A   Clear
3:35 AM 66.6 °F 59.4 °F 78% 29.74 in 10.0 mi South 5.8 mph - N/A   Clear
3:55 AM 66.7 °F 59.5 °F 78% 29.74 in 10.0 mi South 5.8 mph - N/A   Mostly Cloudy
4:15 AM 67.1 °F 59.5 °F 77% 29.75 in 10.0 mi Calm Calm - N/A   Overcast
4:35 AM 66.7 °F 59.4 °F 77% 29.74 in 10.0 mi SSE 6.9 mph - N/A   Overcast
4:55 AM 66.2 °F 59.2 °F 78% 29.74 in 10.0 mi SSE 8.1 mph - N/A   Scattered Clouds
5:15 AM 66.2 °F 59.0 °F 78% 29.73 in 10.0 mi SSE 6.9 mph - N/A   Clear
5:35 AM 65.8 °F 59.2 °F 79% 29.73 in 10.0 mi SSE 6.9 mph - N/A   Mostly Cloudy
5:55 AM 66.2 °F 59.4 °F 79% 29.74 in 10.0 mi SW 4.6 mph - N/A   Overcast
6:15 AM 63.1 °F 50.5 °F 63% 29.76 in 10.0 mi WNW 10.4 mph 18.4 mph N/A   Overcast
6:35 AM 61.2 °F 47.3 °F 60% 29.77 in 10.0 mi WNW 9.2 mph - N/A   Overcast
6:55 AM 60.3 °F 46.6 °F 61% 29.78 in 10.0 mi NW 9.2 mph - N/A   Overcast
7:35 AM 58.1 °F 43.9 °F 59% 29.80 in 10.0 mi WNW 11.5 mph - N/A   Overcast
7:55 AM 57.2 °F 43.5 °F 60% 29.80 in 10.0 mi WNW 9.2 mph - N/A   Overcast
8:15 AM 56.7 °F 43.2 °F 61% 29.80 in 10.0 mi WNW 9.2 mph - N/A   Overcast
8:35 AM 56.5 °F 43.2 °F 61% 29.82 in 10.0 mi WNW 9.2 mph - N/A   Overcast
8:55 AM 56.3 °F 42.8 °F 61% 29.82 in 10.0 mi WNW 10.4 mph - N/A   Overcast
9:35 AM 55.8 °F 42.1 °F 60% 29.84 in 10.0 mi WNW 9.2 mph - N/A   Overcast
9:55 AM 55.8 °F 42.3 °F 60% 29.84 in 10.0 mi WNW 10.4 mph - N/A   Overcast
10:15 AM 56.3 °F 42.3 °F 59% 29.84 in 10.0 mi WNW 9.2 mph - N/A   Overcast
10:35 AM 56.5 °F 42.3 °F 59% 29.84 in 10.0 mi NW 5.8 mph - N/A   Overcast
10:55 AM 57.9 °F 43.0 °F 58% 29.84 in 10.0 mi NW 5.8 mph - N/A   Overcast
11:15 AM 57.9 °F 42.4 °F 56% 29.83 in 10.0 mi WNW 8.1 mph - N/A   Overcast
11:35 AM 59.4 °F 43.2 °F 55% 29.83 in 10.0 mi WNW 6.9 mph - N/A   Overcast
11:55 AM 59.9 °F 43.5 °F 55% 29.83 in 10.0 mi West 8.1 mph - N/A   Overcast
12:15 PM 60.6 °F 43.0 °F 52% 29.82 in 10.0 mi West 9.2 mph - N/A   Overcast
12:35 PM 61.0 °F 43.5 °F 53% 29.82 in 10.0 mi West 10.4 mph - N/A   Overcast
12:55 PM 61.0 °F 43.5 °F 53% 29.82 in 10.0 mi West 9.2 mph - N/A   Overcast
1:15 PM 61.9 °F 43.7 °F 51% 29.81 in 10.0 mi WNW 8.1 mph - N/A   Overcast
1:35 PM 63.0 °F 44.4 °F 51% 29.80 in 10.0 mi WNW 8.1 mph - N/A   Overcast
1:55 PM 64.0 °F 44.2 °F 49% 29.79 in 10.0 mi WNW 4.6 mph - N/A   Mostly Cloudy
2:15 PM 64.9 °F 45.5 °F 49% 29.77 in 10.0 mi West 3.5 mph - N/A   Mostly Cloudy
2:35 PM 66.9 °F 46.6 °F 48% 29.77 in 10.0 mi WSW 5.8 mph - N/A   Overcast
2:55 PM 66.9 °F 46.8 °F 48% 29.75 in 10.0 mi WSW 5.8 mph - N/A   Overcast
3:35 PM 69.6 °F 48.7 °F 47% 29.74 in 10.0 mi South 5.8 mph - N/A   Mostly Cloudy
3:55 PM 70.7 °F 50.5 °F 49% 29.73 in 10.0 mi South 5.8 mph - N/A   Scattered Clouds
4:15 PM 72.0 °F 51.1 °F 48% 29.72 in 10.0 mi SW 9.2 mph - N/A   Scattered Clouds
4:35 PM 72.1 °F 50.0 °F 46% 29.72 in 10.0 mi SW 9.2 mph - N/A   Clear
4:55 PM 72.5 °F 48.7 °F 43% 29.71 in 10.0 mi West 5.8 mph - N/A   Clear
5:15 PM 72.9 °F 48.7 °F 42% 29.71 in 10.0 mi WSW 8.1 mph - N/A   Clear
5:35 PM 72.9 °F 48.9 °F 43% 29.70 in 10.0 mi SSW 5.8 mph - N/A   Clear
5:55 PM 72.5 °F 47.8 °F 42% 29.70 in 10.0 mi WSW 4.6 mph - N/A   Clear
6:15 PM 72.7 °F 47.7 °F 41% 29.70 in 10.0 mi Calm Calm - N/A   Clear
6:35 PM 72.5 °F 48.7 °F 43% 29.70 in 10.0 mi SW 4.6 mph - N/A   Clear
6:55 PM 71.8 °F 48.6 °F 44% 29.70 in 10.0 mi SW 5.8 mph - N/A   Clear
7:15 PM 70.7 °F 48.4 °F 45% 29.70 in 10.0 mi WSW 4.6 mph - N/A   Clear
7:35 PM 68.5 °F 48.0 °F 48% 29.70 in 10.0 mi SW 4.6 mph - N/A   Clear
7:55 PM 66.4 °F 48.4 °F 52% 29.70 in 10.0 mi South 3.5 mph - N/A   Clear
8:15 PM 66.4 °F 46.9 °F 50% 29.70 in 10.0 mi South 3.5 mph - N/A   Clear
8:35 PM 63.9 °F 47.3 °F 55% 29.70 in 10.0 mi Calm Calm - N/A   Clear
8:55 PM 62.1 °F 47.5 °F 59% 29.70 in 10.0 mi Calm Calm - N/A   Clear
9:15 PM 62.2 °F 47.1 °F 58% 29.71 in 10.0 mi Calm Calm - N/A   Clear
9:55 PM 59.7 °F 46.9 °F 63% 29.73 in 10.0 mi Calm Calm - N/A   Clear
10:15 PM 56.3 °F 46.8 °F 70% 29.74 in 10.0 mi Calm Calm - N/A   Clear
10:35 PM 55.4 °F 46.8 °F 73% 29.74 in 10.0 mi Calm Calm - N/A   Clear
10:55 PM 54.3 °F 46.6 °F 75% 29.73 in 10.0 mi Calm Calm - N/A   Clear
11:15 PM 53.2 °F 46.4 °F 78% 29.72 in 10.0 mi Calm Calm - N/A   Clear
11:35 PM 54.7 °F 46.4 °F 74% 29.72 in 10.0 mi Calm Calm - N/A   Clear
11:55 PM 53.1 °F 46.6 °F 79% 29.72 in 10.0 mi Calm Calm - N/A   Clear